Regional Weather Roundup
Issued by NWS Jackson, KY

Home | Current Version | Previous Version | Text Only | Print | Product List | Glossary Off
Versions: 1 2 3 4 5 6 7 8 9 10 11 12 13 14 15 16 17 18 19 20 21 22 23 24 25 26 27

000
ASUS43 KJKL 290610
RWRJKL

EAST KENTUCKY HOURLY WEATHER ROUNDUP
NATIONAL WEATHER SERVICE JACKSON KY
200 AM EDT SAT APR 29 2017

NOTE: "FAIR" INDICATES FEW OR NO CLOUDS BELOW 12,000 FEET WITH
NO SIGNIFICANT WEATHER AND/OR OBSTRUCTIONS TO VISIBILITY.

* THESE REPORTS ARE NOT UNDER NWS QUALITY CONTROL AND MAY NOT
  REPORT WEATHER SUCH AS PRECIPITATION AND FOG.

KYZ079-080-083-085-087-088-110-112-115-119-120-290700
...EASTERN KENTUCKY...

CITY           SKY/WX    TMP DP  RH WIND       PRES   REMARKS
JACKSON        CLOUDY    74  63  68 MISG      30.00R
6HR MIN TEMP:  73; 6HR MAX TEMP:  77;

LONDON         CLOUDY    71  62  73 CALM      30.00R
6HR MIN TEMP:  71; 6HR MAX TEMP:  78;

SOMERSET*      CLOUDY    73  63  68 SW5       30.01R
MONTICELLO*    CLOUDY    74  65  73 VRB3G17   30.00R
6HR MIN TEMP:  74; 6HR MAX TEMP:  78;

WILLIAMSBURG*  CLOUDY    72  64  78 S8        29.99R
MIDDLESBORO*   PTCLDY    75  64  68 S7        30.02S
6HR MIN TEMP:  66; 6HR MAX TEMP:  77;

HARLAN APT*    CLOUDY    73  61  64 CALM      30.03F
PIKE CO APT*     N/A     73  62  67 S7        30.02F
BIG SANDY APT* CLOUDY    76  63  63 S9        30.00S
6HR MIN TEMP:  76; 6HR MAX TEMP:  79;

MOREHEAD APT*  CLOUDY    75  63  64 S10G16    29.99R
$$

KYZ035-036-041-042-044-050-067-078-099-290700
...CENTRAL KENTUCKY...

CITY           SKY/WX    TMP DP  RH WIND       PRES   REMARKS
MT STERLING*   CLOUDY    75  64  69 SW12G20   29.98R
FLEMING/MASON* CLOUDY    66  61  82 E8        29.97F
DANVILLE*      CLOUDY    72  63  73 S6        29.98R
LEXINGTON      CLOUDY    75  64  68 S14       29.96R
6HR MIN TEMP:  73; 6HR MAX TEMP:  77;

FRANKFORT      CLOUDY    75  62  64 NW21G33   29.98R
6HR MIN TEMP:  73; 6HR MAX TEMP:  78; 6HR PCP: TRACE;

LOUISVILLE     CLOUDY    69  63  81 NW16G25   29.94R
6HR MIN TEMP:  69; 6HR MAX TEMP:  76; 6HR PCP:  0.01;

LEBANON*         N/A     75  64  69 S13       29.95S
GLASGOW*       MOCLDY    76  65  68 S7        29.94R
BOWLING GREEN  CLOUDY    76  68  76 S9        29.93R
6HR MIN TEMP:  76; 6HR MAX TEMP:  79;

$$

KYZ091>093-OHZ055-061-077-WVZ005-015-034-035-042-290700
...SOUTHERN OHIO/WEST VIRGINIA...

CITY           SKY/WX    TMP DP  RH WIND       PRES   REMARKS
COVINGTON      LGT RAIN  64  64 100 SW10      29.94R
COLUMBUS       TSTM      57  56  96 VRB6      29.96F
DAYTON         TSTM      57  56  96 SE12      29.92F
WILMINGTON     LGT RAIN  57  57 100 SE17G29   29.91F FOG
HUNTINGTON     CLOUDY    73  60  63 NE5       29.99R
CHARLESTON     CLOUDY    71  55  56 CALM      30.02R
PINEVILLE*     CLEAR     63  59  88 MISG      30.12R
BECKLEY        CLEAR     68  57  68 S6        30.11R
BLUEFIELD      CLEAR     67  56  67 SW7       30.14S
LOGAN CO APT*    N/A     73  61  64 S5        30.04S
$$

VAZ002-007-008-TNZ017-027-036-066-071-290700
...SOUTHWEST VIRGINIA/EAST TENNESSEE...

CITY           SKY/WX    TMP DP  RH WIND       PRES   REMARKS
WISE*          CLOUDY    70  57  64 S10G16    30.12R
JONESVILLE*      N/A     66  64  94 CALM      30.06F
ABINGDON*      CLEAR     65  61  88 CALM      30.11S
BRISTOL        CLEAR     62  59  90 N3        30.07F
MORRISTOWN*    CLEAR     66  64  94 CALM      30.03S
SEVIERVILLE*   CLEAR     63  63 100 CALM      30.01F
KNOXVILLE      CLEAR     71  62  73 S6        30.00F
LAFOLLETTE*    CLOUDY    75  64  69 S9G22     30.03F
OAK RIDGE      CLEAR     75  63  66 VRB3      30.01F
CROSSVILLE     CLEAR     72  64  76 S9G23     30.02F
NASHVILLE      PTCLDY    78  67  68 S17G25    29.91R
$$

...KEY TO REMARKS...
VSB - VISIBILITY IN MILES
WCI - WIND CHILL INDEX
HX  - HEAT INDEX

$$




USA.gov is the U.S. government's official web portal to all federal, state and local government web resources and services.